Location: Holbach
(51.5399°N, 10.6036°E)
Time: 09:40:04
(UTC+00:00)

Cosmos 1092 Rocket - Pass Details

Date: 26 June 2021
Orbit: 955 x 994 km, 82.9° (Epoch: 28 July)

Event Time Altitude Azimuth Distance (km) Brightness Sun altitude
Exits shadow 22:52:37 10° 130° (SE) 2,673 5.9 -14.9°
Maximum altitude 22:57:11 23° 81° (E) 1,928 5.6 -15.0°
Drops below altitude 10° 23:01:49 10° 32° (NNE) 2,707 7.1 -15.0°
Sets 23:04:50 0° 18° (NNE) 3,664 8.3 -15.1°
